K5BV Weather Reports


time (UTC)temp
C
wind
direction
speed
KPH
gust
KPH
rain 1hr
cm
rain 24hr
cm
rain mn
cm
humidity
%
barometer
mb
20260510164231 27 0 0.0 0.0 0.00 0.00 0.00 87 1014.2
20260510163231 27 0 0.0 0.0 0.00 0.00 0.00 89 1014.1
20260510162230 27 0 0.0 0.0 0.00 0.00 0.00 90 1014.2
20260510161230 27 0 0.0 0.0 0.00 0.00 0.00 90 1014.1
20260510160229 27 0 0.0 0.0 0.00 0.00 0.00 89 1014.1
20260510155231 27 0 0.0 0.0 0.00 0.00 0.00 89 1014.1
20260510154230 27 0 0.0 0.0 0.00 0.00 0.00 90 1014.0
20260510153230 27 0 0.0 0.0 0.00 0.00 0.00 90 1013.9
20260510152231 27 0 0.0 0.0 0.00 0.00 0.00 90 1013.6
20260510151230 27 0 0.0 0.0 0.00 0.00 0.00 91 1013.5
20260510150230 27 0 0.0 0.0 0.00 0.00 0.00 92 1013.5
20260510145229 26 0 0.0 0.0 0.00 0.00 0.00 93 1013.3
20260510144229 26 0 0.0 0.0 0.00 0.00 0.00 94 1013.3
20260510143230 26 0 0.0 0.0 0.00 0.00 0.00 95 1013.3
20260510142230 26 0 0.0 0.0 0.00 0.00 0.00 95 1013.2
20260510141229 26 0 0.0 0.0 0.00 0.00 0.00 96 1013.1
20260510140232 25 0 0.0 0.0 0.00 0.00 0.00 96 1012.8
20260510135232 25 0 0.0 0.0 0.00 0.00 0.00 96 1012.8
20260510134231 25 0 0.0 0.0 0.00 0.00 0.00 96 1012.7
20260510133229 25 0 0.0 0.0 0.00 0.00 0.00 97 1012.6
20260510132230 25 0 0.0 0.0 0.00 0.00 0.00 97 1012.5
20260510131235 25 0 0.0 0.0 0.00 0.00 0.00 97 1012.4
20260510125231 25 0 0.0 0.0 0.00 0.03 0.00 98 1012.2
20260510124231 25 0 0.0 0.0 0.00 0.03 0.00 98 1012.2
20260510123231 25 0 0.0 0.0 0.00 0.03 0.00 98 1012.1
20260510122230 25 0 0.0 0.0 0.00 0.03 0.00 97 1012.0
20260510121230 25 0 0.0 0.0 0.00 0.08 0.00 97 1011.9
20260510120230 25 0 0.0 0.0 0.00 0.15 0.00 97 1011.8
20260510115230 25 0 0.0 0.0 0.00 0.18 0.00 97 1011.8
20260510114230 25 0 0.0 0.0 0.00 0.23 0.00 97 1011.8
20260510113230 25 0 0.0 0.0 0.00 0.28 0.00 97 1011.8
20260510112230 25 0 0.0 0.0 0.00 0.41 0.00 97 1011.8
20260510111230 25 0 0.0 0.0 0.00 0.56 0.00 97 1011.8
20260510110230 25 0 0.0 0.0 0.00 0.66 0.00 97 1011.8
20260510105231 25 0 0.0 0.0 0.00 0.76 0.00 97 1011.8
20260510104230 25 0 0.0 0.0 0.00 0.81 0.00 97 1011.8
20260510103230 25 0 0.0 0.0 0.00 0.84 0.00 97 1011.8
20260510102230 25 0 0.0 0.0 0.00 0.89 0.00 97 1011.7
20260510101230 25 0 0.0 0.0 0.00 0.89 0.00 97 1011.8
20260510100230 24 0 0.0 0.0 0.00 0.89 0.00 97 1011.8
20260510095230 25 0 0.0 0.0 0.00 0.89 0.00 97 1011.9
20260510094230 25 0 0.0 0.0 0.00 0.89 0.00 97 1011.9
20260510093230 25 0 0.0 0.0 0.00 0.89 0.00 97 1011.7
20260510092230 25 0 0.0 0.0 0.00 0.89 0.00 97 1011.6
20260510091230 24 0 0.0 0.0 0.00 0.89 0.00 97 1011.6
20260510090230 25 0 0.0 0.0 0.00 0.89 0.00 97 1011.4
20260510085231 25 0 0.0 0.0 0.00 0.89 0.00 96 1011.5
20260510084230 25 0 0.0 0.0 0.00 0.89 0.00 96 1011.6
20260510081232 25 0 0.0 0.0 0.00 0.89 0.00 96 1011.5
20260510080230 25 0 0.0 0.0 0.00 0.89 0.00 96 1011.8
20260510074230 25 0 0.0 0.0 0.00 0.89 0.00 95 1011.8
20260510073230 25 0 0.0 0.0 0.00 0.89 0.00 95 1011.7
20260510072231 25 0 0.0 0.0 0.00 0.89 0.00 94 1011.7
20260510071230 25 0 0.0 0.0 0.00 0.89 0.00 94 1011.8
20260510070230 25 0 0.0 0.0 0.00 0.89 0.00 93 1011.9
20260510065230 25 0 0.0 0.0 0.00 0.89 0.00 94 1012.0
20260510064231 25 0 0.0 0.0 0.00 0.89 0.00 95 1012.2
20260510063230 25 0 0.0 0.0 0.00 0.89 0.00 95 1011.9
20260510061230 25 0 0.0 0.0 0.00 0.89 0.00 96 1011.9
20260510060230 25 0 0.0 0.0 0.00 0.89 0.00 95 1012.1
20260510055230 25 0 0.0 0.0 0.00 0.89 0.00 95 1012.2
20260510054230 25 0 0.0 0.0 0.00 0.89 0.00 95 1012.2
20260510053230 25 0 0.0 0.0 0.00 0.89 0.00 94 1012.3
20260510052231 25 0 0.0 0.0 0.00 0.89 0.00 94 1012.4
20260510051230 25 0 0.0 0.0 0.00 0.89 0.00 93 1012.2
20260510050234 25 0 0.0 0.0 0.00 0.89 0.00 93 1012.0
20260510045230 25 0 0.0 0.0 0.00 0.89 0.89 93 1011.8
20260510044230 25 0 0.0 0.0 0.00 0.89 0.89 93 1011.3
20260510042230 25 0 0.0 0.0 0.00 0.89 0.89 92 1011.2
20260510041231 25 0 0.0 0.0 0.00 0.89 0.89 92 1011.2
20260510040229 25 0 0.0 0.0 0.00 0.89 0.89 91 1010.7
20260510035229 25 0 0.0 0.0 0.00 0.89 0.89 91 1010.9
20260510034230 25 0 0.0 0.0 0.00 0.89 0.89 90 1011.2
20260510033230 25 0 0.0 0.0 0.00 0.89 0.89 90 1011.1
20260510032230 25 0 0.0 0.0 0.00 0.89 0.89 89 1011.1
20260510031230 26 0 0.0 0.0 0.00 0.89 0.89 88 1011.1
20260510030229 26 0 0.0 0.0 0.00 0.89 0.89 88 1011.0
20260510025231 26 0 0.0 0.0 0.00 0.89 0.89 87 1011.0
20260510024231 26 0 0.0 0.0 0.00 0.89 0.89 85 1010.7
20260510023232 26 0 0.0 0.0 0.00 0.89 0.89 84 1010.7
20260510022229 26 0 0.0 0.0 0.00 0.89 0.89 83 1010.6
20260510021230 26 0 0.0 0.0 0.00 0.89 0.89 82 1010.5
20260510020231 26 0 0.0 0.0 0.00 0.89 0.89 79 1010.2
20260510014231 26 0 0.0 0.0 0.00 0.89 0.89 79 1009.9
20260510013230 26 0 0.0 0.0 0.00 0.89 0.89 78 1009.7
20260510012231 27 0 0.0 0.0 0.00 0.89 0.89 76 1009.5
20260510011232 27 0 0.0 0.0 0.00 0.89 0.89 76 1009.6
20260510005231 27 0 0.0 0.0 0.00 0.89 0.89 72 1009.6
20260510004231 28 0 0.0 0.0 0.00 0.89 0.89 67 1009.7
20260510003231 28 0 0.0 0.0 0.00 0.89 0.89 67 1009.7
20260510001231 28 0 0.0 0.0 0.00 0.89 0.89 70 1009.6
20260510000233 28 0 0.0 0.0 0.00 0.89 0.89 70 1009.6
20260509235231 28 0 0.0 0.0 0.00 0.89 0.89 71 1009.6
20260509234231 28 0 0.0 0.0 0.00 0.89 0.89 69 1009.6
20260509233231 28 0 0.0 0.0 0.00 0.89 0.89 69 1009.6
20260509232231 28 0 0.0 0.0 0.00 0.89 0.89 70 1009.6
20260509231231 28 0 0.0 0.0 0.00 0.89 0.89 69 1009.6
20260509230232 28 0 0.0 0.0 0.00 0.89 0.89 68 1009.8
20260509225231 28 0 0.0 0.0 0.00 0.89 0.89 67 1009.8
20260509224232 28 0 0.0 0.0 0.00 0.89 0.89 70 1009.7
20260509221231 29 0 0.0 0.0 0.00 0.89 0.89 71 1009.9
20260509220231 30 0 0.0 0.0 0.00 0.89 0.89 69 1009.8
20260509215231 30 0 0.0 0.0 0.00 0.89 0.89 70 1009.8
20260509213230 30 0 0.0 0.0 0.00 0.89 0.89 74 1009.8
20260509211232 29 0 0.0 0.0 0.00 0.89 0.89 74 1009.7
20260509210231 29 0 0.0 0.0 0.00 0.89 0.89 73 1009.8
20260509205231 28 0 0.0 0.0 0.00 0.89 0.89 75 1009.9
20260509204231 28 0 0.0 0.0 0.00 0.89 0.89 74 1009.8
20260509203231 28 0 0.0 0.0 0.00 0.89 0.89 76 1009.8
20260509202231 28 0 0.0 0.0 0.00 0.89 0.89 78 1009.8
20260509201231 28 0 0.0 0.0 0.00 0.89 0.89 77 1009.9
20260509200230 28 0 0.0 0.0 0.00 0.89 0.89 76 1009.9
20260509195230 28 0 0.0 0.0 0.00 0.89 0.89 76 1010.1
20260509194231 28 0 0.0 0.0 0.00 0.89 0.89 75 1010.1
20260509193230 29 0 0.0 0.0 0.00 0.89 0.89 73 1010.1
20260509191231 29 0 0.0 0.0 0.00 0.89 0.89 72 1010.2
20260509190231 29 0 0.0 0.0 0.00 0.89 0.89 72 1010.3
20260509185230 29 0 0.0 0.0 0.00 0.89 0.89 74 1010.2
20260509184230 29 0 0.0 0.0 0.00 0.89 0.89 74 1010.3
20260509183232 29 0 0.0 0.0 0.00 0.89 0.89 73 1010.3
20260509182231 28 0 0.0 0.0 0.00 0.89 0.89 74 1010.3
20260509181231 29 0 0.0 0.0 0.00 0.89 0.89 74 1010.5
20260509180231 28 0 0.0 0.0 0.00 0.89 0.89 76 1010.5
20260509175230 28 0 0.0 0.0 0.00 0.89 0.89 76 1010.3
20260509174231 28 0 0.0 0.0 0.00 0.89 0.89 76 1010.2
20260509173231 28 0 0.0 0.0 0.00 0.89 0.89 75 1010.3
20260509172231 27 0 0.0 0.0 0.00 0.89 0.89 72 1010.6
20260509171230 27 0 0.0 0.0 0.00 0.89 0.89 75 1010.5
20260509170241 27 0 0.0 0.0 0.00 0.89 0.89 75 1010.7